When you browse on this site, cookies collect data to enhance your experience and personalize the content and advertising you see.
Visit our Privacy Policy to learn more. By continuing to use the site, you agree to this use of cookies and data.
  • In United Kingdom
  • List of Countries
  • For 7 days
  • Water Temperature
  • Weather Map
  • Weather Widgets
  • user-avatar
    Login

    Hourly Weather Phin

    Today, 18 August, Sunday

    Time Temperature Precipitation Wind Pressure Humidity
    00:00 +25°C° 0 mm 1 mps 733 mmHg 96%
    01:00 +25°C° 0 mm 1 mps 733 mmHg 95%
    02:00 +25°C° 0 mm 1 mps 733 mmHg 95%
    03:00 +25°C° 0 mm 1 mps 733 mmHg 95%
    04:00 +25°C° 0 mm 1 mps 732 mmHg 96%
    05:00 +25°C° 0 mm 2 mps 733 mmHg 94%
    06:00 +25°C° 0 mm 2 mps 733 mmHg 93%
    07:00 +26°C° 0 mm 2 mps 734 mmHg 91%
    08:00 +27°C° 0 mm 2 mps 734 mmHg 83%
    09:00 +29°C° 0 mm 3 mps 734 mmHg 76%
    10:00 +30°C° 0 mm 4 mps 734 mmHg 68%
    11:00 +32°C° 0 mm 4 mps 734 mmHg 65%
    12:00 +33°C° 0 mm 4 mps 733 mmHg 63%
    13:00 +34°C° 0 mm 4 mps 733 mmHg 60%
    14:00 +33°C° 0.2 mm 4 mps 732 mmHg 65%
    15:00 +31°C° 0.2 mm 3 mps 731 mmHg 70%
    16:00 +31°C° 0.2 mm 3 mps 731 mmHg 76%
    17:00 +30°C° 0.1 mm 2 mps 731 mmHg 79%
    18:00 +29°C° 0.1 mm 2 mps 731 mmHg 83%
    19:00 +27°C° 0.1 mm 1 mps 732 mmHg 87%
    20:00 +27°C° 0 mm 1 mps 732 mmHg 87%
    21:00 +27°C° 0 mm 1 mps 732 mmHg 88%
    22:00 +27°C° 0 mm 1 mps 733 mmHg 88%
    23:00 +27°C° 0 mm 2 mps 733 mmHg 89%

    Tomorrow, 19 August, Monday

    Time Temperature Precipitation Wind Pressure Humidity
    00:00 +26°C° 0 mm 2 mps 732 mmHg 89%
    01:00 +26°C° 0 mm 2 mps 732 mmHg 90%
    02:00 +26°C° 0.1 mm 2 mps 732 mmHg 91%
    03:00 +26°C° 0.1 mm 2 mps 732 mmHg 92%
    04:00 +26°C° 0.1 mm 2 mps 732 mmHg 93%
    05:00 +26°C° 0 mm 2 mps 732 mmHg 92%
    06:00 +26°C° 0 mm 2 mps 732 mmHg 91%
    07:00 +26°C° 0 mm 2 mps 732 mmHg 90%
    08:00 +28°C° 0.1 mm 2 mps 733 mmHg 84%
    09:00 +29°C° 0.1 mm 3 mps 733 mmHg 78%
    10:00 +31°C° 0.1 mm 3 mps 733 mmHg 72%
    11:00 +31°C° 0.5 mm 3 mps 732 mmHg 71%
    12:00 +33°C° 0.5 mm 3 mps 732 mmHg 69%
    13:00 +33°C° 0.5 mm 3 mps 731 mmHg 67%
    14:00 +33°C° 0.6 mm 3 mps 731 mmHg 69%
    15:00 +31°C° 0.6 mm 3 mps 730 mmHg 72%
    16:00 +31°C° 0.6 mm 3 mps 730 mmHg 74%
    17:00 +30°C° 0.2 mm 2 mps 730 mmHg 79%
    18:00 +28°C° 0.2 mm 2 mps 730 mmHg 85%
    19:00 +27°C° 0.2 mm 1 mps 730 mmHg 91%
    20:00 +27°C° 0.1 mm 1 mps 731 mmHg 92%
    21:00 +26°C° 0.1 mm 1 mps 731 mmHg 93%
    22:00 +26°C° 0.1 mm 1 mps 732 mmHg 95%
    23:00 +26°C° 0.3 mm 1 mps 732 mmHg 95%

    Day after tomorrow, 20 August, Tuesday

    Time Temperature Precipitation Wind Pressure Humidity
    00:00 +26°C° 0.3 mm 1 mps 731 mmHg 96%
    01:00 +25°C° 0.3 mm 1 mps 731 mmHg 96%
    02:00 +25°C° 0.1 mm 1 mps 731 mmHg 97%
    03:00 +25°C° 0.1 mm 1 mps 730 mmHg 97%
    04:00 +23°C° 0.1 mm 0 mps 730 mmHg 98%
    05:00 +25°C° 0 mm 1 mps 730 mmHg 97%
    06:00 +26°C° 0 mm 1 mps 731 mmHg 96%
    07:00 +26°C° 0 mm 2 mps 731 mmHg 95%
    08:00 +27°C° 0.5 mm 2 mps 731 mmHg 91%
    09:00 +28°C° 0.5 mm 2 mps 731 mmHg 88%
    10:00 +29°C° 0.5 mm 3 mps 732 mmHg 85%
    11:00 +29°C° 2.6 mm 3 mps 731 mmHg 86%
    12:00 +29°C° 2.6 mm 3 mps 731 mmHg 88%
    13:00 +29°C° 2.6 mm 3 mps 730 mmHg 90%
    14:00 +29°C° 2.8 mm 2 mps 730 mmHg 91%
    15:00 +28°C° 2.8 mm 2 mps 729 mmHg 92%
    16:00 +28°C° 2.8 mm 2 mps 729 mmHg 93%
    17:00 +27°C° 1.9 mm 1 mps 729 mmHg 94%
    18:00 +27°C° 1.9 mm 1 mps 729 mmHg 95%
    19:00 +26°C° 1.9 mm 1 mps 730 mmHg 96%
    20:00 +26°C° 0.5 mm 1 mps 730 mmHg 96%
    21:00 +26°C° 0.5 mm 1 mps 731 mmHg 96%
    22:00 +25°C° 0.5 mm 1 mps 731 mmHg 96%
    23:00 +25°C° 0.2 mm 1 mps 731 mmHg 97%

    21 August, Wednesday

    Time Temperature Precipitation Wind Pressure Humidity
    00:00 +25°C° 0.2 mm 1 mps 731 mmHg 97%
    01:00 +25°C° 0.2 mm 1 mps 731 mmHg 97%
    02:00 +25°C° 0.6 mm 1 mps 730 mmHg 97%
    03:00 +25°C° 0.6 mm 1 mps 730 mmHg 97%
    04:00 +25°C° 0.6 mm 1 mps 730 mmHg 97%
    05:00 +25°C° 0.1 mm 1 mps 730 mmHg 97%
    06:00 +25°C° 0.1 mm 1 mps 731 mmHg 96%
    07:00 +25°C° 0.1 mm 1 mps 731 mmHg 96%
    08:00 +26°C° 0.5 mm 2 mps 732 mmHg 93%
    09:00 +27°C° 0.5 mm 3 mps 732 mmHg 89%
    10:00 +28°C° 0.5 mm 3 mps 732 mmHg 86%
    11:00 +29°C° 1.2 mm 3 mps 732 mmHg 86%
    12:00 +29°C° 1.2 mm 3 mps 731 mmHg 86%
    13:00 +29°C° 1.2 mm 3 mps 730 mmHg 86%
    14:00 +30°C° 0.9 mm 3 mps 730 mmHg 83%
    15:00 +30°C° 0.9 mm 3 mps 730 mmHg 80%
    16:00 +30°C° 0.9 mm 3 mps 730 mmHg 78%
    17:00 +29°C° 0.9 mm 2 mps 730 mmHg 84%
    18:00 +27°C° 0.9 mm 2 mps 730 mmHg 90%
    19:00 +26°C° 0.9 mm 1 mps 731 mmHg 96%
    20:00 +26°C° 0.1 mm 1 mps 731 mmHg 96%
    21:00 +26°C° 0.1 mm 1 mps 732 mmHg 96%
    22:00 +25°C° 0.1 mm 1 mps 732 mmHg 96%
    23:00 +25°C° 0.2 mm 1 mps 732 mmHg 97%

    22 August, Thursday

    Time Temperature Precipitation Wind Pressure Humidity
    00:00 +25°C° 0.2 mm 1 mps 732 mmHg 97%
    01:00 +25°C° 0.2 mm 1 mps 732 mmHg 97%
    02:00 +25°C° 0 mm 1 mps 732 mmHg 97%
    03:00 +25°C° 0 mm 1 mps 731 mmHg 97%
    04:00 +25°C° 0 mm 1 mps 731 mmHg 97%
    05:00 +25°C° 0 mm 1 mps 732 mmHg 96%
    06:00 +25°C° 0 mm 1 mps 732 mmHg 95%
    07:00 +25°C° 0 mm 1 mps 733 mmHg 94%
    08:00 +26°C° 0.4 mm 2 mps 733 mmHg 91%
    09:00 +27°C° 0.4 mm 3 mps 733 mmHg 88%
    10:00 +29°C° 0.4 mm 3 mps 733 mmHg 84%
    11:00 +29°C° 1.6 mm 3 mps 733 mmHg 85%
    12:00 +29°C° 1.6 mm 3 mps 732 mmHg 86%
    13:00 +29°C° 1.6 mm 3 mps 732 mmHg 87%
    14:00 +29°C° 1.4 mm 3 mps 731 mmHg 87%
    15:00 +29°C° 1.4 mm 3 mps 731 mmHg 87%
    16:00 +29°C° 1.4 mm 2 mps 731 mmHg 88%
    17:00 +28°C° 1.3 mm 2 mps 731 mmHg 90%
    18:00 +27°C° 1.3 mm 2 mps 732 mmHg 92%
    19:00 +26°C° 1.3 mm 1 mps 732 mmHg 94%
    20:00 +26°C° 1.1 mm 1 mps 733 mmHg 94%
    21:00 +26°C° 1.1 mm 1 mps 733 mmHg 95%
    22:00 +25°C° 1.1 mm 1 mps 734 mmHg 96%
    23:00 +25°C° 1 mm 1 mps 734 mmHg 97%

    23 August, Friday

    Time Temperature Precipitation Wind Pressure Humidity
    00:00 +25°C° 1 mm 1 mps 733 mmHg 98%
    01:00 +25°C° 1 mm 1 mps 733 mmHg 98%
    02:00 +25°C° 0.8 mm 1 mps 733 mmHg 98%
    03:00 +25°C° 0.8 mm 1 mps 733 mmHg 98%
    04:00 +25°C° 0.8 mm 1 mps 733 mmHg 98%
    05:00 +25°C° 0.1 mm 1 mps 733 mmHg 98%
    06:00 +25°C° 0.1 mm 1 mps 733 mmHg 98%
    07:00 +25°C° 0.1 mm 1 mps 734 mmHg 97%
    08:00 +26°C° 0.1 mm 1 mps 734 mmHg 96%
    09:00 +26°C° 0.1 mm 1 mps 734 mmHg 94%
    10:00 +27°C° 0.1 mm 1 mps 734 mmHg 92%
    11:00 +28°C° 0.2 mm 1 mps 734 mmHg 87%
    12:00 +29°C° 0.2 mm 2 mps 733 mmHg 81%
    13:00 +30°C° 0.2 mm 2 mps 733 mmHg 75%
    14:00 +30°C° 0.7 mm 2 mps 732 mmHg 78%
    15:00 +30°C° 0.7 mm 2 mps 732 mmHg 81%
    16:00 +30°C° 0.7 mm 1 mps 731 mmHg 84%
    17:00 +29°C° 1.6 mm 1 mps 731 mmHg 88%
    18:00 +27°C° 1.6 mm 1 mps 732 mmHg 92%
    19:00 +26°C° 1.6 mm 1 mps 732 mmHg 96%
    20:00 +26°C° 0.4 mm 1 mps 732 mmHg 96%
    21:00 +26°C° 0.4 mm 1 mps 733 mmHg 97%
    22:00 +26°C° 0.4 mm 1 mps 733 mmHg 97%
    23:00 +25°C° 0.6 mm 1 mps 733 mmHg 97%
    Show more